User: anonymous   Login
Location: Hepcat Sky Observatory
(29.9800°N, 95.6500°W)
Time: 13:48:02
(UTC-06:00)
Language:

SL-16 Debris - Orbit

View from above orbital plane
View from above orbital plane
View from above satellite
View from above satellite

Ground track
Ground track

The orbit data is extracted from the following two-line orbital elements,

1 26076U 99040E   16316.22741375  .00003979  00000-0  37734-3 0  9996
2 26076  28.4943 309.7750 4540347 237.8821  70.0526  6.43909801298607
Epoch (UTC): 11 November 2016 05:27:28
Eccentricity: 0.4540347
inclination: 28.4943°
perigee height: 285 km
apogee height: 11367 km
right ascension of ascending node: 309.7750°
argument of perigee: 237.8821°
revolutions per day: 6.43909801
mean anomaly at epoch: 70.0526°
orbit number at epoch: 29860

The dashed part of the orbit path shows where the satellite is in the earth's shadow,  

DLR